Time,TemperatureF,DewpointF,PressureIn,WindDirection,WindDirectionDegrees,WindSpeedMPH,WindSpeedGustMPH,Humidity,HourlyPrecipIn,Conditions,Clouds,dailyrainin,SoftwareType,DateUTC
2013-11-29 00:04:00,25.2,22.0,30.49,SSE,168,0.0,0.0,87,0.00,,,0.00,weatherlink.com 1.10,2013-11-29 06:04:00,
2013-11-29 00:19:00,24.8,22.0,30.49,SSE,168,0.0,0.0,87,0.00,,,0.00,weatherlink.com 1.10,2013-11-29 06:19:00,
2013-11-29 00:34:00,24.7,22.0,30.49,SSE,168,0.0,0.0,88,0.00,,,0.00,weatherlink.com 1.10,2013-11-29 06:34:00,
2013-11-29 00:50:00,24.2,22.0,30.49,SSE,168,0.0,0.0,89,0.00,,,0.00,weatherlink.com 1.10,2013-11-29 06:50:00,
2013-11-29 01:05:00,24.1,21.0,30.49,SSE,168,0.0,0.0,89,0.00,,,0.00,weatherlink.com 1.10,2013-11-29 07:05:00,
2013-11-29 01:20:00,24.0,22.0,30.48,SSE,168,0.0,0.0,90,0.00,,,0.00,weatherlink.com 1.10,2013-11-29 07:20:00,
2013-11-29 01:35:00,23.8,21.0,30.48,SSE,168,0.0,0.0,90,0.00,,,0.00,weatherlink.com 1.10,2013-11-29 07:35:00,
2013-11-29 01:50:00,23.5,21.0,30.49,SSE,168,0.0,0.0,91,0.00,,,0.00,weatherlink.com 1.10,2013-11-29 07:50:00,
2013-11-29 02:05:00,23.6,21.0,30.49,SSE,168,0.0,0.0,91,0.00,,,0.00,weatherlink.com 1.10,2013-11-29 08:05:00,
2013-11-29 02:20:00,23.3,21.0,30.50,SSE,168,0.0,0.0,91,0.00,,,0.00,weatherlink.com 1.10,2013-11-29 08:20:00,
2013-11-29 02:35:00,23.2,21.0,30.50,SSE,168,0.0,0.0,91,0.00,,,0.00,weatherlink.com 1.10,2013-11-29 08:35:00,
2013-11-29 02:50:00,22.9,21.0,30.50,SSE,167,0.0,0.0,91,0.00,,,0.00,weatherlink.com 1.10,2013-11-29 08:50:00,
2013-11-29 03:05:00,22.9,21.0,30.50,SSE,168,0.0,0.0,92,0.00,,,0.00,weatherlink.com 1.10,2013-11-29 09:05:00,
2013-11-29 03:20:00,22.8,21.0,30.50,SSE,168,0.0,0.0,92,0.00,,,0.00,weatherlink.com 1.10,2013-11-29 09:20:00,
2013-11-29 03:35:00,22.6,21.0,30.50,SSE,168,0.0,0.0,92,0.00,,,0.00,weatherlink.com 1.10,2013-11-29 09:35:00,
2013-11-29 03:50:00,22.6,21.0,30.50,SSE,168,0.0,0.0,93,0.00,,,0.00,weatherlink.com 1.10,2013-11-29 09:50:00,
2013-11-29 04:05:00,22.6,21.0,30.50,SSE,168,0.0,0.0,93,0.00,,,0.00,weatherlink.com 1.10,2013-11-29 10:05:00,
2013-11-29 04:20:00,22.3,20.0,30.50,SSE,168,0.0,0.0,92,0.00,,,0.00,weatherlink.com 1.10,2013-11-29 10:20:00,
2013-11-29 04:35:00,22.5,21.0,30.50,SSE,168,0.0,0.0,93,0.00,,,0.00,weatherlink.com 1.10,2013-11-29 10:35:00,
2013-11-29 04:50:00,22.5,21.0,30.50,SSE,168,0.0,0.0,93,0.00,,,0.00,weatherlink.com 1.10,2013-11-29 10:50:00,
2013-11-29 05:05:00,22.9,21.0,30.49,SSE,168,0.0,0.0,93,0.00,,,0.00,weatherlink.com 1.10,2013-11-29 11:05:00,
2013-11-29 05:20:00,23.0,21.0,30.50,SSE,168,0.0,0.0,93,0.00,,,0.00,weatherlink.com 1.10,2013-11-29 11:20:00,
2013-11-29 05:35:00,22.9,22.0,30.50,SSE,168,0.0,0.0,94,0.00,,,0.00,weatherlink.com 1.10,2013-11-29 11:35:00,
2013-11-29 05:50:00,22.6,21.0,30.50,SSE,168,0.0,0.0,93,0.00,,,0.00,weatherlink.com 1.10,2013-11-29 11:50:00,
2013-11-29 06:05:00,22.5,21.0,30.50,South,169,0.0,0.0,93,0.00,,,0.00,weatherlink.com 1.10,2013-11-29 12:05:00,
2013-11-29 06:20:00,22.1,20.0,30.50,SSE,168,0.0,0.0,93,0.00,,,0.00,weatherlink.com 1.10,2013-11-29 12:20:00,
2013-11-29 06:35:00,21.9,20.0,30.51,SSE,168,0.0,0.0,93,0.00,,,0.00,weatherlink.com 1.10,2013-11-29 12:35:00,
2013-11-29 06:51:00,21.7,20.0,30.51,SSE,168,0.0,0.0,93,0.00,,,0.00,weatherlink.com 1.10,2013-11-29 12:51:00,
2013-11-29 07:05:00,21.8,20.0,30.52,SSE,168,0.0,0.0,94,0.00,,,0.00,weatherlink.com 1.10,2013-11-29 13:05:00,
2013-11-29 07:20:00,22.9,22.0,30.52,SSE,168,0.0,0.0,95,0.00,,,0.00,weatherlink.com 1.10,2013-11-29 13:20:00,
2013-11-29 07:35:00,23.2,22.0,30.52,SSE,168,0.0,0.0,94,0.00,,,0.00,weatherlink.com 1.10,2013-11-29 13:35:00,
2013-11-29 07:50:00,23.2,22.0,30.52,SSE,168,0.0,0.0,94,0.00,,,0.00,weatherlink.com 1.10,2013-11-29 13:50:00,
2013-11-29 08:05:00,24.1,23.0,30.53,South,169,0.0,0.0,95,0.00,,,0.00,weatherlink.com 1.10,2013-11-29 14:05:00,
2013-11-29 08:20:00,26.9,26.0,30.53,South,169,0.0,0.0,95,0.00,,,0.00,weatherlink.com 1.10,2013-11-29 14:20:00,
2013-11-29 08:35:00,31.1,30.0,30.53,SW,214,0.0,1.0,96,0.00,,,0.00,weatherlink.com 1.10,2013-11-29 14:35:00,
2013-11-29 08:50:00,33.5,31.0,30.53,SSE,161,0.0,1.0,90,0.00,,,0.00,weatherlink.com 1.10,2013-11-29 14:50:00,
2013-11-29 09:05:00,35.5,31.0,30.53,SE,140,1.0,2.0,82,0.00,,,0.00,weatherlink.com 1.10,2013-11-29 15:05:00,
2013-11-29 09:20:00,36.9,32.0,30.53,SE,141,0.0,4.0,81,0.00,,,0.00,weatherlink.com 1.10,2013-11-29 15:20:00,
2013-11-29 09:35:00,38.7,32.0,30.53,East,87,2.0,3.0,78,0.00,,,0.00,weatherlink.com 1.10,2013-11-29 15:35:00,
2013-11-29 09:51:00,41.2,35.0,30.53,SE,140,3.0,3.0,79,0.00,,,0.00,weatherlink.com 1.10,2013-11-29 15:51:00,
2013-11-29 10:06:00,44.0,35.0,30.53,WSW,254,0.0,9.0,71,0.00,,,0.00,weatherlink.com 1.10,2013-11-29 16:06:00,
2013-11-29 10:21:00,45.9,35.0,30.53,SSE,167,4.0,9.0,66,0.00,,,0.00,weatherlink.com 1.10,2013-11-29 16:21:00,
2013-11-29 10:36:00,47.4,36.0,30.52,SW,232,7.0,7.0,64,0.00,,,0.00,weatherlink.com 1.10,2013-11-29 16:36:00,
2013-11-29 10:51:00,48.4,36.0,30.52,SW,221,0.0,7.0,62,0.00,,,0.00,weatherlink.com 1.10,2013-11-29 16:51:00,
2013-11-29 11:06:00,49.5,36.0,30.51,SSE,148,2.0,8.0,60,0.00,,,0.00,weatherlink.com 1.10,2013-11-29 17:06:00,
2013-11-29 11:21:00,50.6,35.0,30.51,ESE,111,1.0,9.0,56,0.00,,,0.00,weatherlink.com 1.10,2013-11-29 17:21:00,
2013-11-29 11:36:00,51.6,35.0,30.50,South,190,2.0,8.0,53,0.00,,,0.00,weatherlink.com 1.10,2013-11-29 17:36:00,
2013-11-29 11:51:00,52.2,35.0,30.49,WSW,237,8.0,10.0,53,0.00,,,0.00,weatherlink.com 1.10,2013-11-29 17:51:00,
2013-11-29 12:06:00,53.2,35.0,30.47,SSW,194,5.0,9.0,50,0.00,,,0.00,weatherlink.com 1.10,2013-11-29 18:06:00,
2013-11-29 12:21:00,53.7,35.0,30.46,SSW,192,1.0,8.0,49,0.00,,,0.00,weatherlink.com 1.10,2013-11-29 18:21:00,
2013-11-29 12:36:00,54.2,35.0,30.45,SE,137,4.0,10.0,49,0.00,,,0.00,weatherlink.com 1.10,2013-11-29 18:36:00,
2013-11-29 12:51:00,55.1,35.0,30.44,SSE,150,8.0,9.0,47,0.00,,,0.00,weatherlink.com 1.10,2013-11-29 18:51:00,
2013-11-29 13:06:00,55.4,35.0,30.43,SE,141,2.0,11.0,47,0.00,,,0.00,weatherlink.com 1.10,2013-11-29 19:06:00,
2013-11-29 13:21:00,55.9,34.0,30.42,WSW,241,4.0,15.0,44,0.00,,,0.00,weatherlink.com 1.10,2013-11-29 19:21:00,
2013-11-29 13:36:00,56.6,34.0,30.41,SW,222,4.0,8.0,42,0.00,,,0.00,weatherlink.com 1.10,2013-11-29 19:36:00,
2013-11-29 13:52:00,57.4,32.0,30.41,SW,223,3.0,10.0,39,0.00,,,0.00,weatherlink.com 1.10,2013-11-29 19:52:00,
2013-11-29 14:07:00,58.0,32.0,30.40,SW,227,5.0,9.0,37,0.00,,,0.00,weatherlink.com 1.10,2013-11-29 20:07:00,
2013-11-29 14:22:00,58.1,31.0,30.39,SW,232,2.0,9.0,36,0.00,,,0.00,weatherlink.com 1.10,2013-11-29 20:22:00,
2013-11-29 14:37:00,58.6,32.0,30.39,South,184,1.0,11.0,36,0.00,,,0.00,weatherlink.com 1.10,2013-11-29 20:37:00,
2013-11-29 14:52:00,58.7,32.0,30.38,SE,132,3.0,11.0,37,0.00,,,0.00,weatherlink.com 1.10,2013-11-29 20:52:00,
2013-11-29 15:07:00,58.6,32.0,30.37,SSE,162,6.0,13.0,36,0.00,,,0.00,weatherlink.com 1.10,2013-11-29 21:07:00,
2013-11-29 15:22:00,58.4,31.0,30.37,SE,143,6.0,15.0,35,0.00,,,0.00,weatherlink.com 1.10,2013-11-29 21:22:00,
2013-11-29 15:37:00,58.1,32.0,30.36,SSE,168,2.0,11.0,37,0.00,,,0.00,weatherlink.com 1.10,2013-11-29 21:37:00,
2013-11-29 15:52:00,57.2,32.0,30.36,SSE,165,8.0,12.0,39,0.00,,,0.00,weatherlink.com 1.10,2013-11-29 21:52:00,
2013-11-29 16:07:00,56.7,32.0,30.36,SSE,155,4.0,13.0,40,0.00,,,0.00,weatherlink.com 1.10,2013-11-29 22:07:00,
2013-11-29 16:22:00,56.4,32.0,30.36,SSE,165,4.0,9.0,40,0.00,,,0.00,weatherlink.com 1.10,2013-11-29 22:22:00,
2013-11-29 16:37:00,55.0,33.0,30.36,South,183,8.0,12.0,43,0.00,,,0.00,weatherlink.com 1.10,2013-11-29 22:37:00,
2013-11-29 16:52:00,53.7,32.0,30.36,SSE,155,3.0,9.0,44,0.00,,,0.00,weatherlink.com 1.10,2013-11-29 22:52:00,
2013-11-29 17:07:00,52.8,32.0,30.36,SSE,158,3.0,9.0,46,0.00,,,0.00,weatherlink.com 1.10,2013-11-29 23:07:00,
2013-11-29 17:22:00,51.8,32.0,30.36,SSE,154,3.0,9.0,47,0.00,,,0.00,weatherlink.com 1.10,2013-11-29 23:22:00,
2013-11-29 17:37:00,50.8,32.0,30.36,South,170,3.0,7.0,49,0.00,,,0.00,weatherlink.com 1.10,2013-11-29 23:37:00,
2013-11-29 17:52:00,49.9,32.0,30.36,SSE,157,3.0,7.0,51,0.00,,,0.00,weatherlink.com 1.10,2013-11-29 23:52:00,
2013-11-29 18:07:00,48.9,32.0,30.36,SSE,161,0.0,5.0,53,0.00,,,0.00,weatherlink.com 1.10,2013-11-30 00:07:00,
2013-11-29 18:22:00,48.0,32.0,30.36,South,188,1.0,4.0,55,0.00,,,0.00,weatherlink.com 1.10,2013-11-30 00:22:00,
2013-11-29 18:37:00,47.5,33.0,30.37,SSE,163,2.0,5.0,57,0.00,,,0.00,weatherlink.com 1.10,2013-11-30 00:37:00,
2013-11-29 18:52:00,47.3,33.0,30.37,SSW,203,2.0,7.0,59,0.00,,,0.00,weatherlink.com 1.10,2013-11-30 00:52:00,
2013-11-29 19:07:00,47.1,33.0,30.37,SSE,155,2.0,7.0,59,0.00,,,0.00,weatherlink.com 1.10,2013-11-30 01:07:00,
2013-11-29 19:22:00,47.1,34.0,30.36,SE,134,4.0,8.0,60,0.00,,,0.00,weatherlink.com 1.10,2013-11-30 01:22:00,
2013-11-29 19:37:00,46.8,33.0,30.36,SE,126,3.0,6.0,60,0.00,,,0.00,weatherlink.com 1.10,2013-11-30 01:37:00,
2013-11-29 19:52:00,46.0,33.0,30.37,SE,140,3.0,6.0,62,0.00,,,0.00,weatherlink.com 1.10,2013-11-30 01:52:00,
2013-11-29 20:07:00,45.7,34.0,30.37,SSE,165,5.0,8.0,63,0.00,,,0.00,weatherlink.com 1.10,2013-11-30 02:07:00,
2013-11-29 20:22:00,45.6,34.0,30.37,SSW,213,3.0,8.0,64,0.00,,,0.00,weatherlink.com 1.10,2013-11-30 02:22:00,
2013-11-29 20:37:00,45.2,34.0,30.37,SSE,157,1.0,8.0,65,0.00,,,0.00,weatherlink.com 1.10,2013-11-30 02:37:00,
2013-11-29 20:52:00,44.6,34.0,30.37,South,169,3.0,9.0,66,0.00,,,0.00,weatherlink.com 1.10,2013-11-30 02:52:00,
2013-11-29 21:07:00,44.1,34.0,30.37,SSE,156,3.0,9.0,67,0.00,,,0.00,weatherlink.com 1.10,2013-11-30 03:07:00,
2013-11-29 21:22:00,43.5,34.0,30.37,South,176,2.0,8.0,68,0.00,,,0.00,weatherlink.com 1.10,2013-11-30 03:22:00,
2013-11-29 21:37:00,43.2,34.0,30.37,SE,138,2.0,7.0,70,0.00,,,0.00,weatherlink.com 1.10,2013-11-30 03:37:00,
2013-11-29 21:52:00,43.1,34.0,30.37,South,173,5.0,5.0,71,0.00,,,0.00,weatherlink.com 1.10,2013-11-30 03:52:00,
2013-11-29 22:07:00,42.9,34.0,30.37,SSW,198,1.0,6.0,71,0.00,,,0.00,weatherlink.com 1.10,2013-11-30 04:07:00,
2013-11-29 22:22:00,42.6,34.0,30.37,South,178,2.0,8.0,72,0.00,,,0.00,weatherlink.com 1.10,2013-11-30 04:22:00,
2013-11-29 22:37:00,42.1,34.0,30.37,SSE,160,3.0,6.0,73,0.00,,,0.00,weatherlink.com 1.10,2013-11-30 04:37:00,
2013-11-29 22:52:00,41.9,34.0,30.37,SSE,150,2.0,6.0,74,0.00,,,0.00,weatherlink.com 1.10,2013-11-30 04:52:00,
2013-11-29 23:07:00,41.4,34.0,30.36,SE,125,1.0,5.0,75,0.00,,,0.00,weatherlink.com 1.10,2013-11-30 05:07:00,
2013-11-29 23:22:00,41.1,34.0,30.36,SSE,156,1.0,7.0,76,0.00,,,0.00,weatherlink.com 1.10,2013-11-30 05:22:00,
2013-11-29 23:37:00,41.0,34.0,30.37,SE,138,1.0,5.0,77,0.00,,,0.00,weatherlink.com 1.10,2013-11-30 05:37:00,
2013-11-29 23:52:00,41.6,35.0,30.36,SSE,159,3.0,7.0,77,0.00,,,0.00,weatherlink.com 1.10,2013-11-30 05:52:00,